Home   Weather   Chittorgarh   Past weeks

Flag for India Past Weather in Chittorgarh, Rajasthan, India — Yesterday and Last 2 Weeks

Now
59 °F

Haze.


Feels Like: 59 °F
Forecast: 44 / 71 °F
Wind: No wind

Location: Jaipur / Sanganer

Current Time: Jan 17, 2017 at 8:49:42 pm

Latest Report: Jan 17, 2017 at 8:00 pm


Visibility: 2 mi

Pressure: 30.09 "Hg (28.28 "Hg at 524m altitude)

Humidity: 45%

Dew Point: 37 °F

Location of ChittorgarhLocation

Past Weather in Chittorgarh — Graph

°F

Chittorgarh Temperature Yesterday

Maximum temperature yesterday: 68 °F (at 12:30 pm)
Minimum temperature yesterday: 52 °F (at 5:00 am)
Average temperature yesterday: 60 °F

High & Low Weather Summary for the Past Weeks

 TemperatureHumidityPressure
High77 °F (Jan 5, 2:00 pm)100% (Jan 2, 10:30 pm)30.18 "Hg (Jan 2, 10:30 pm)
Low39 °F (Jan 12, 5:30 am)15% (Jan 13, 5:00 pm)27.00 "Hg (Jan 6, 7:30 pm)
Average59 °F58%30.02 "Hg
* Reported Jan 2 7:30 pm — Jan 17 7:30 pm, Chittorgarh, Weather by CustomWeather, © 2017

Note: Actual official high and low records may vary slightly from our data, if they occured in-between our weather recording intervals... More about our weather records

Advertising

Chittorgarh Weather History for the Previous 24 Hours

Scroll right to see more
 ConditionsComfort  
Time TempWeatherWind HumidityBarometerVisibility
7:30 pm
Tue, Jan 17
57 °FHaze.No wind44%30.07 "Hg2 mi
7:00 pm59 °FHaze.2 mph39%30.07 "Hg2 mi
6:30 pm61 °FHaze.2 mph36%30.07 "Hg2 mi
6:00 pm63 °FHaze.2 mph32%30.07 "Hg3 mi
5:30 pm64 °FHaze.3 mph30%30.04 "Hg3 mi
5:00 pm64 °FHaze.6 mph30%30.04 "Hg3 mi
4:30 pm66 °FHaze.3 mph26%30.04 "Hg3 mi
4:00 pm66 °FHaze.6 mph24%30.04 "Hg3 mi
3:30 pm66 °FHaze.6 mph22%30.04 "Hg3 mi
3:00 pm66 °FHaze.5 mph28%30.04 "Hg3 mi
2:30 pm64 °FHaze.5 mph30%30.04 "Hg3 mi
2:00 pm64 °FHaze.8 mph30%30.04 "Hg3 mi
1:30 pm64 °FHaze.5 mph32%30.07 "Hg3 mi
1:00 pm61 °FHaze.6 mph39%30.09 "Hg3 mi
12:30 pm61 °FHaze.6 mph39%30.09 "Hg3 mi
12:00 pm61 °FHaze.7 mph39%30.12 "Hg2 mi
11:30 am59 °FHaze.5 mph48%30.12 "Hg2 mi
11:00 am57 °FHaze.5 mph55%30.15 "Hg2 mi
10:30 am57 °FClear.No wind59%30.15 "Hg1 mi
10:00 am55 °FPassing clouds.No wind63%30.15 "Hg1 mi
9:30 am52 °FClear.1 mph72%30.15 "Hg1 mi
9:00 am52 °FClear.No wind77%30.12 "Hg1 mi
8:00 am45 °FPassing clouds.No wind100%30.09 "Hg1 mi
7:30 am43 °FPassing clouds.No wind100%30.09 "Hg1 mi
7:00 am43 °FPassing clouds.No wind93%30.09 "Hg1 mi
6:30 am45 °FClear.No wind93%30.07 "Hg1 mi
6:00 am43 °FClear.No wind93%30.07 "Hg1 mi
5:30 am43 °FHaze.3 mph93%30.04 "Hg1 mi
5:00 am45 °FHaze.No wind81%30.04 "Hg1 mi
4:30 am43 °FHaze.No wind81%30.04 "Hg2 mi
4:00 am45 °FHaze.1 mph71%30.07 "Hg2 mi
3:30 am48 °FHaze.No wind66%30.07 "Hg2 mi
3:00 am46 °FHaze.No wind71%30.07 "Hg2 mi
12:00 am52 °FHaze.1 mph54%30.07 "Hg2 mi
11:30 pm
Mon, Jan 16
52 °FHaze.No wind54%30.07 "Hg2 mi
11:00 pm55 °FHaze.1 mph51%30.09 "Hg2 mi
10:30 pm55 °FHaze.No wind51%30.09 "Hg2 mi
10:00 pm55 °FHaze.5 mph47%30.09 "Hg2 mi
9:30 pm57 °FHaze.5 mph44%30.09 "Hg2 mi
9:00 pm57 °FHaze.7 mph44%30.09 "Hg2 mi
8:30 pm59 °FHaze.5 mph42%30.07 "Hg2 mi
8:00 pm59 °FHaze.3 mph39%30.07 "Hg2 mi
Weather by CustomWeather, © 2017

See weather overviewHow to use our weather pages